Previsão horária em Juayùa

Hoje, 22 Junho, Terça-feira

Tempo Temperatura Precipitação Vento Pressão Humidade
00:00 +20°C° 0.3 mm 1 m/s 667 mmHg 95%
01:00 +20°C° 0.2 mm 1 m/s 666 mmHg 95%
02:00 +19°C° 0.2 mm 1 m/s 666 mmHg 95%
03:00 +19°C° 0.2 mm 1 m/s 666 mmHg 95%
04:00 +19°C° 0.1 mm 1 m/s 666 mmHg 95%
05:00 +19°C° 0.1 mm 1 m/s 666 mmHg 94%
06:00 +19°C° 0.1 mm 1 m/s 666 mmHg 94%
07:00 +21°C° 0 mm 1 m/s 667 mmHg 87%
08:00 +23°C° 0 mm 1 m/s 668 mmHg 81%
09:00 +23°C° 0 mm 0 m/s 668 mmHg 74%
10:00 +25°C° 0.8 mm 1 m/s 668 mmHg 76%
11:00 +25°C° 0.8 mm 1 m/s 668 mmHg 78%
12:00 +25°C° 0.8 mm 1 m/s 668 mmHg 80%
13:00 +25°C° 0.9 mm 1 m/s 668 mmHg 80%
14:00 +25°C° 0.9 mm 1 m/s 667 mmHg 79%
15:00 +25°C° 0.9 mm 1 m/s 667 mmHg 79%
16:00 +24°C° 0.1 mm 1 m/s 667 mmHg 83%
17:00 +23°C° 0.1 mm 1 m/s 666 mmHg 87%
18:00 +22°C° 0.1 mm 1 m/s 666 mmHg 92%
19:00 +21°C° 0.3 mm 1 m/s 666 mmHg 93%
20:00 +21°C° 0.3 mm 1 m/s 667 mmHg 95%
21:00 +18°C° 0.3 mm 0 m/s 667 mmHg 96%
22:00 +18°C° 0.6 mm 0 m/s 667 mmHg 96%
23:00 +20°C° 0.6 mm 1 m/s 667 mmHg 96%

Amanhã, 23 Junho, Quarta-feira

Tempo Temperatura Precipitação Vento Pressão Humidade
00:00 +19°C° 0.6 mm 1 m/s 667 mmHg 96%
01:00 +19°C° 1.1 mm 1 m/s 667 mmHg 96%
02:00 +19°C° 1.1 mm 1 m/s 666 mmHg 96%
03:00 +19°C° 1.1 mm 1 m/s 666 mmHg 96%
04:00 +19°C° 1 mm 1 m/s 666 mmHg 96%
05:00 +19°C° 1 mm 1 m/s 667 mmHg 96%
06:00 +19°C° 1 mm 1 m/s 667 mmHg 97%
07:00 +20°C° 0.4 mm 1 m/s 667 mmHg 93%
08:00 +21°C° 0.4 mm 1 m/s 668 mmHg 90%
09:00 +22°C° 0.4 mm 1 m/s 669 mmHg 87%
10:00 +22°C° 0.9 mm 1 m/s 669 mmHg 89%
11:00 +22°C° 0.9 mm 1 m/s 668 mmHg 90%
12:00 +19°C° 0.9 mm 0 m/s 668 mmHg 92%
13:00 +20°C° 0.3 mm 0 m/s 668 mmHg 89%
14:00 +21°C° 0.3 mm 0 m/s 668 mmHg 85%
15:00 +21°C° 0.3 mm 0 m/s 667 mmHg 82%
16:00 +21°C° 0.6 mm 0 m/s 667 mmHg 85%
17:00 +22°C° 0.6 mm 1 m/s 667 mmHg 89%
18:00 +21°C° 0.6 mm 1 m/s 667 mmHg 92%
19:00 +21°C° 1.2 mm 1 m/s 667 mmHg 93%
20:00 +20°C° 1.2 mm 1 m/s 667 mmHg 94%
21:00 +19°C° 1.2 mm 1 m/s 668 mmHg 95%
22:00 +19°C° 0.3 mm 1 m/s 667 mmHg 95%
23:00 +19°C° 0.3 mm 1 m/s 667 mmHg 94%

Depois de amanhã, 24 Junho, Quinta-feira

Tempo Temperatura Precipitação Vento Pressão Humidade
00:00 +19°C° 0.3 mm 1 m/s 667 mmHg 94%
01:00 +19°C° 0 mm 1 m/s 666 mmHg 93%
02:00 +19°C° 0 mm 1 m/s 666 mmHg 92%
03:00 +19°C° 0 mm 1 m/s 666 mmHg 91%
04:00 +18°C° 0 mm 1 m/s 666 mmHg 91%
05:00 +18°C° 0 mm 1 m/s 666 mmHg 90%
06:00 +18°C° 0 mm 1 m/s 667 mmHg 89%
07:00 +20°C° 0 mm 1 m/s 667 mmHg 82%
08:00 +20°C° 0 mm 0 m/s 668 mmHg 75%
09:00 +22°C° 0 mm 0 m/s 669 mmHg 68%
10:00 +25°C° 0.2 mm 1 m/s 668 mmHg 66%
11:00 +25°C° 0.2 mm 1 m/s 668 mmHg 64%
12:00 +26°C° 0.2 mm 1 m/s 668 mmHg 61%
13:00 +25°C° 0.5 mm 1 m/s 668 mmHg 68%
14:00 +24°C° 0.5 mm 1 m/s 667 mmHg 75%
15:00 +23°C° 0.5 mm 1 m/s 667 mmHg 82%
16:00 +22°C° 0.1 mm 1 m/s 666 mmHg 86%
17:00 +21°C° 0.1 mm 1 m/s 666 mmHg 90%
18:00 +20°C° 0.1 mm 1 m/s 666 mmHg 94%
19:00 +20°C° 0.5 mm 1 m/s 667 mmHg 94%
20:00 +19°C° 0.5 mm 1 m/s 667 mmHg 95%
21:00 +19°C° 0.5 mm 1 m/s 667 mmHg 95%
22:00 +19°C° 0.1 mm 1 m/s 667 mmHg 94%
23:00 +19°C° 0.1 mm 1 m/s 667 mmHg 93%

25 Junho, Sexta-feira

Tempo Temperatura Precipitação Vento Pressão Humidade
00:00 +19°C° 0.1 mm 1 m/s 667 mmHg 92%
01:00 +19°C° 0.1 mm 1 m/s 667 mmHg 92%
02:00 +18°C° 0.1 mm 1 m/s 666 mmHg 92%
03:00 +18°C° 0.1 mm 1 m/s 666 mmHg 92%
04:00 +18°C° 0 mm 1 m/s 666 mmHg 92%
05:00 +18°C° 0 mm 1 m/s 666 mmHg 91%
06:00 +18°C° 0 mm 1 m/s 666 mmHg 91%
07:00 +20°C° 0 mm 1 m/s 666 mmHg 82%
08:00 +22°C° 0 mm 1 m/s 667 mmHg 74%
09:00 +24°C° 0 mm 1 m/s 668 mmHg 66%
10:00 +25°C° 0.1 mm 1 m/s 668 mmHg 64%
11:00 +26°C° 0.1 mm 1 m/s 668 mmHg 63%
12:00 +27°C° 0.1 mm 2 m/s 667 mmHg 61%
13:00 +26°C° 0.8 mm 2 m/s 667 mmHg 67%
14:00 +25°C° 0.8 mm 2 m/s 666 mmHg 74%
15:00 +24°C° 0.8 mm 2 m/s 666 mmHg 80%
16:00 +23°C° 0.5 mm 1 m/s 666 mmHg 84%
17:00 +22°C° 0.5 mm 1 m/s 666 mmHg 88%
18:00 +21°C° 0.5 mm 1 m/s 666 mmHg 93%
19:00 +21°C° 0.4 mm 1 m/s 666 mmHg 94%
20:00 +20°C° 0.4 mm 1 m/s 666 mmHg 95%
21:00 +19°C° 0.4 mm 1 m/s 666 mmHg 96%
22:00 +19°C° 0.9 mm 1 m/s 666 mmHg 97%
23:00 +19°C° 0.9 mm 1 m/s 666 mmHg 97%

26 Junho, Sábado

Tempo Temperatura Precipitação Vento Pressão Humidade
00:00 +19°C° 0.9 mm 1 m/s 666 mmHg 97%
01:00 +19°C° 0.9 mm 1 m/s 666 mmHg 97%
02:00 +19°C° 0.9 mm 1 m/s 665 mmHg 97%
03:00 +19°C° 0.9 mm 1 m/s 665 mmHg 96%
04:00 +19°C° 0.2 mm 1 m/s 665 mmHg 96%
05:00 +19°C° 0.2 mm 1 m/s 665 mmHg 95%
06:00 +19°C° 0.2 mm 1 m/s 665 mmHg 94%
07:00 +18°C° 0.1 mm 0 m/s 666 mmHg 92%
08:00 +18°C° 0.1 mm 0 m/s 666 mmHg 90%
09:00 +19°C° 0.1 mm 0 m/s 666 mmHg 87%
10:00 +22°C° 0.4 mm 1 m/s 667 mmHg 83%
11:00 +23°C° 0.4 mm 1 m/s 667 mmHg 80%
12:00 +24°C° 0.4 mm 2 m/s 667 mmHg 76%
13:00 +24°C° 0.9 mm 2 m/s 666 mmHg 79%
14:00 +23°C° 0.9 mm 2 m/s 666 mmHg 83%
15:00 +23°C° 0.9 mm 2 m/s 665 mmHg 86%
16:00 +21°C° 0.6 mm 2 m/s 665 mmHg 88%
17:00 +21°C° 0.6 mm 1 m/s 665 mmHg 91%
18:00 +21°C° 0.6 mm 1 m/s 665 mmHg 93%
19:00 +20°C° 0 mm 1 m/s 665 mmHg 94%
20:00 +19°C° 0 mm 1 m/s 665 mmHg 95%
21:00 +19°C° 0 mm 1 m/s 666 mmHg 96%
22:00 +18°C° 0.1 mm 1 m/s 665 mmHg 96%
23:00 +18°C° 0.1 mm 1 m/s 665 mmHg 96%

27 Junho, Domingo

Tempo Temperatura Precipitação Vento Pressão Humidade
00:00 +18°C° 0.1 mm 1 m/s 665 mmHg 96%
01:00 +18°C° 0.2 mm 1 m/s 665 mmHg 96%
02:00 +18°C° 0.2 mm 1 m/s 664 mmHg 95%
03:00 +18°C° 0.2 mm 1 m/s 664 mmHg 95%
04:00 +18°C° 0 mm 1 m/s 664 mmHg 94%
05:00 +18°C° 0 mm 1 m/s 664 mmHg 94%
06:00 +18°C° 0 mm 1 m/s 664 mmHg 94%
07:00 +20°C° 0 mm 1 m/s 665 mmHg 85%
08:00 +22°C° 0 mm 1 m/s 666 mmHg 77%
09:00 +24°C° 0 mm 1 m/s 666 mmHg 68%
10:00 +25°C° 0.2 mm 1 m/s 666 mmHg 68%
11:00 +25°C° 0.2 mm 1 m/s 666 mmHg 68%
12:00 +26°C° 0.2 mm 2 m/s 666 mmHg 67%
13:00 +25°C° 0.9 mm 2 m/s 666 mmHg 71%
14:00 +25°C° 0.9 mm 2 m/s 666 mmHg 76%
15:00 +24°C° 0.9 mm 2 m/s 665 mmHg 80%
16:00 +23°C° 1.2 mm 2 m/s 665 mmHg 84%
17:00 +21°C° 1.2 mm 2 m/s 665 mmHg 88%
18:00 +21°C° 1.2 mm 1 m/s 665 mmHg 92%
19:00 +20°C° 0.3 mm 1 m/s 666 mmHg 93%
20:00 +20°C° 0.3 mm 1 m/s 666 mmHg 94%
21:00 +20°C° 0.3 mm 1 m/s 666 mmHg 95%
22:00 +19°C° 0 mm 1 m/s 666 mmHg 95%
23:00 +19°C° 0 mm 1 m/s 666 mmHg 94%
Mostrar mais

Necessitamos do seu Consentimento

A Meteoprog e os seus Fornecedores de Serviços podem armazenar e aceder a dados pessoais como cookies, identificadores do dispositivo ou outras tecnologias semelhantes existentes no seu dispositivo e processar estes dados para personalizar conteúdos e anúncios, assim como funcionalidades nas redes sociais e análise de tráfego.

  • Armazenar e/ou aceder a informações no seu dispositivo

    Os cookies, identificadores do dispositivo ou outras informações podem ser armazenados ou acedidos no seu dispositivo, para os fins acima indicados.

  • Anúncios e conteúdos personalizados, medição de anúncios e conteúdos, dados sobre o público-alvo e desenvolvimento de produtos

    Os anúncios e os conteúdos podem ser personalizados com base num perfil. Podem ser adicionados dados adicionais para uma maior personalização dos anúncios e dos conteúdos. A eficácia dos anúncios e dos conteúdos pode ser medida. Podem ser obtidas informações sobre o público que visualizou os anúncios e os conteúdos. Estes dados podem ser usados para desenvolver ou melhorar sistemas, softwares ou a experiência do utilizador.

Ao clicar em "Eu concordo”, permitirá o uso de cookies, identificadores do dispositivo e web beacons mencionados ou outras tecnologias semelhantes. As configurações do navegador do seu dispositivo podem ser alteradas.

Para certos fins, podem ser invocados interesses legítimos ao invés de consentimento. Pode ler mais informação sobre este assunto na nossa Política de Privacidade e Cookies.